Location: Katowice
(50.2611°N, 19.0242°E)
Time: 01:38:37
(UTC+02:00)

Explorer 7 - Pass Details

Date: 01 September 2019
Orbit: 485 x 680 km, 50.3° (Epoch: 21 September)

Event Time Altitude Azimuth Distance (km) Brightness Sun altitude
Rises 05:37:42 0° 194° (SSW) 3,012 10.3 -3.9°
Reaches altitude 10° 05:40:50 10° 173° (S) 2,110 9.7 -3.4°
Maximum altitude 05:43:49 16° 135° (SE) 1,733 9.8 -3.0°
Drops below altitude 10° 05:46:47 10° 98° (E) 2,109 11.1 -2.5°
Sets 05:49:54 0° 77° (ENE) 3,010 14.0 -2.1°
